Hourly Data Report for October 23, 2013

All times are specified in Local Standard Time (LST). Add 1 hour to adjust for Daylight Saving Time where and when it is observed.

OTTAWA INTL A
ONTARIO

45°19'00.000" N
75°40'00.000" W
114.90 m
6106001
71628
YOW

Download Data

Hourly Data (October 2013)
Hourly Data Report for October 23, 2013
Temp Definition
°C
Dew Point Temp Definition
°C
Rel Hum Definition
%
Wind Dir Definition
10's deg

Wind Spd Definition
km/h
Visibility Definition
km
Stn Press Definition
kPa
Hmdx Definition


Wind Chill Definition


Weather Definition


TIME
00:00 Legend Double Dagger 3.5 0.6 81 24 15 24.1 99.28     LegendNANA
01:00 Legend Double Dagger 3.5 0.9 83 25 16 24.1 99.28     Mostly Cloudy
02:00 Legend Double Dagger 3.4 1.3 86 25 9 24.1 99.29     LegendNANA
03:00 Legend Double Dagger 3.1 0.7 84 25 15 24.1 99.29     LegendNANA
04:00 Legend Double Dagger 2.1 0.0 86 26 13 24.1 99.29     Mostly Cloudy
05:00 Legend Double Dagger 0.8 -0.8 89 24 11 24.1 99.30     LegendNANA
06:00 Legend Double Dagger -0.2 -1.3 92 25 13 24.1 99.29   -4 LegendNANA
07:00 Legend Double Dagger -0.3 -1.4 92 27 10 24.1 99.33   -4 Clear
08:00 Legend Double Dagger 2.0 -0.1 86 27 11 24.1 99.34     LegendNANA
09:00 Legend Double Dagger 3.2 -0.4 77 29 17 24.1 99.35     LegendNANA
10:00 Legend Double Dagger 4.7 -0.7 68 28 12 24.1 99.33     Mainly Clear
11:00 Legend Double Dagger 4.9 -0.9 66 31 8 24.1 99.30     LegendNANA
12:00 Legend Double Dagger 5.9 -1.3 60 22 4 24.1 99.21     LegendNANA
13:00 Legend Double Dagger 7.8 -1.7 51 28 19 24.1 99.15     Mainly Clear
14:00 Legend Double Dagger 7.9 -1.9 50 26 19 24.1 99.09     LegendNANA
15:00 Legend Double Dagger 7.4 -2.1 51 30 17 24.1 99.09     LegendNANA
16:00 Legend Double Dagger 7.1 -1.8 53 30 15 24.1 99.09     Mainly Clear
17:00 Legend Double Dagger 4.0 -2.0 65 30 10 24.1 99.12     LegendNANA
18:00 Legend Double Dagger 2.9 -2.8 66 27 8 24.1 99.15     LegendNANA
19:00 Legend Double Dagger 4.7 -2.9 58 29 24 24.1 99.19     Mostly Cloudy
20:00 Legend Double Dagger 3.0 -4.5 58 30 32 24.1 99.23     LegendNANA
21:00 Legend Double Dagger 1.2 -4.7 65 27 13 24.1 99.21     LegendNANA
22:00 Legend Double Dagger -1.1 -5.2 74 26 11 24.1 99.22   -5 Clear
23:00 Legend Double Dagger -0.2 -4.7 72 23 8 24.1 99.22   -3 LegendNANA

Notes on Data Quality.

Legend

  • E = Estimated
  • M = Missing
  • NA = Not Available
  • ‡ = Partner data that is not subject to review by the National Climate Archives
Date modified: